Location: Jaite
(41.2884°N, 81.5737°W)
Time: 18:00:17
(UTC+00:00)

STARLINK-37 - Pass Details

Date: 18 January 2020
Orbit: 528 x 531 km, 53.0° (Epoch: 21 February)

Event Time Altitude Azimuth Distance (km) Brightness Sun altitude
Exits shadow 11:27:37 - 218° (SW) 2,535 6.8 -15.0°
Reaches altitude 10° 11:29:33 10° 214° (SW) 1,768 6.0 -14.7°
Maximum altitude 11:33:28 54° 137° (SE) 644 4.3 -14.0°
Drops below altitude 10° 11:37:25 10° 59° (ENE) 1,781 6.9 -13.3°
Sets 11:39:40 0° 55° (NE) 2,674 7.7 -12.9°
